sat.trackr.live / text

‹ back to catalog

MARAFON-D GVM

NORAD 59072 · 2024-039V

PAYLOAD ACTIVE UNKNOWN

§ Identity

Operator
Country
CIS
Launch date
2024-02-29
Launch site
VOSTO
Launch vehicle
Mass (kg)
RCS (m²)

External: N2YO · Heavens-Above · Gunter

§ Orbital elements

Epoch: 2026-05-25T04:30:58.796064Z

Period
99.59 min
Inclination
88.9807°
Eccentricity
0.0018617
Mean motion
14.45998676 rev/d
Perigee alt
725.5 km
Apogee alt
752.0 km
Semi-major
7,116.9 km
B*
6.3367e-5
RAAN
286.6198°
Arg perigee
59.0785°
Mean anomaly
301.2246°
Rev number
11,786

§ Raw data

MARAFON-D GVM1 59072U 24039V   26145.18818051  .00000242  00000+0  63367-4 0  99972 59072  88.9807 286.6198 0018617  59.0785 301.2246 14.45998676117862

JSON: /api/v1/satellites/59072 · /tle

For live sub-satellite position, see the globe view (requires WebGL).

§ Visibility from observer

Set your observer location to see the next 7 days of passes ≥ 10°. The values pass through the URL so the page stays shareable.

No JS? Fill the form by hand. The geolocation button needs JavaScript.